Time,TemperatureF,DewpointF,PressureIn,WindDirection,WindDirectionDegrees,WindSpeedMPH,WindSpeedGustMPH,Humidity,HourlyPrecipIn,Conditions,Clouds,dailyrainin,SoftwareType,DateUTC
2013-07-31 00:02:00,61.7,57.9,29.36,North,0,0.0,0.0,87,0.00,,,0.00,WUHU216HW,2013-07-31 05:02:00,
2013-07-31 00:07:00,61.6,57.7,29.36,North,0,0.0,0.0,87,0.00,,,0.00,WUHU216HW,2013-07-31 05:07:00,
2013-07-31 00:12:00,61.6,58.1,29.36,North,0,0.0,0.0,88,0.00,,,0.00,WUHU216HW,2013-07-31 05:12:00,
2013-07-31 00:17:00,61.4,57.9,29.36,North,0,0.0,0.0,88,0.00,,,0.00,WUHU216HW,2013-07-31 05:17:00,
2013-07-31 00:22:00,61.4,57.9,29.36,North,0,0.0,0.0,88,0.00,,,0.00,WUHU216HW,2013-07-31 05:22:00,
2013-07-31 00:27:00,61.2,57.7,29.36,North,0,0.0,0.0,88,0.00,,,0.00,WUHU216HW,2013-07-31 05:27:00,
2013-07-31 00:32:00,61.2,57.7,29.36,North,0,0.0,0.0,88,0.00,,,0.00,WUHU216HW,2013-07-31 05:32:00,
2013-07-31 00:37:00,61.0,57.5,29.36,North,0,0.0,0.0,88,0.00,,,0.00,WUHU216HW,2013-07-31 05:37:00,
2013-07-31 00:42:00,61.0,57.8,29.36,North,0,0.0,0.0,89,0.00,,,0.00,WUHU216HW,2013-07-31 05:42:00,
2013-07-31 00:47:00,61.0,57.8,29.36,North,0,0.0,0.0,89,0.00,,,0.00,WUHU216HW,2013-07-31 05:47:00,
2013-07-31 00:52:00,61.0,57.8,29.36,North,0,0.0,0.0,89,0.00,,,0.00,WUHU216HW,2013-07-31 05:52:00,
2013-07-31 00:57:00,61.0,57.8,29.36,North,0,0.0,0.0,89,0.00,,,0.00,WUHU216HW,2013-07-31 05:57:00,
2013-07-31 01:02:00,61.0,57.8,29.36,North,0,0.0,0.0,89,0.00,,,0.00,WUHU216HW,2013-07-31 06:02:00,
2013-07-31 01:07:00,60.8,57.6,29.36,North,0,0.0,0.0,89,0.00,,,0.00,WUHU216HW,2013-07-31 06:07:00,
2013-07-31 01:12:00,60.7,57.4,29.36,North,0,0.0,0.0,89,0.00,,,0.00,WUHU216HW,2013-07-31 06:12:00,
2013-07-31 01:17:00,60.7,57.4,29.36,North,0,0.0,0.0,89,0.00,,,0.00,WUHU216HW,2013-07-31 06:17:00,
2013-07-31 01:22:00,60.7,57.4,29.36,North,0,0.0,0.0,89,0.00,,,0.00,WUHU216HW,2013-07-31 06:22:00,
2013-07-31 01:27:00,60.7,57.4,29.36,North,0,0.0,0.0,89,0.00,,,0.00,WUHU216HW,2013-07-31 06:27:00,
2013-07-31 01:32:00,60.5,57.2,29.36,North,0,0.0,0.0,89,0.00,,,0.00,WUHU216HW,2013-07-31 06:32:00,
2013-07-31 01:37:00,60.5,57.6,29.36,North,0,0.0,0.0,90,0.00,,,0.00,WUHU216HW,2013-07-31 06:37:00,
2013-07-31 01:42:00,60.5,57.6,29.36,North,0,0.0,0.0,90,0.00,,,0.00,WUHU216HW,2013-07-31 06:42:00,
2013-07-31 01:47:00,60.1,57.2,29.36,North,0,0.0,0.0,90,0.00,,,0.00,WUHU216HW,2013-07-31 06:47:00,
2013-07-31 01:52:00,60.1,57.2,29.36,North,0,0.0,0.0,90,0.00,,,0.00,WUHU216HW,2013-07-31 06:52:00,
2013-07-31 01:57:00,60.1,57.2,29.37,North,0,0.0,0.0,90,0.00,,,0.00,WUHU216HW,2013-07-31 06:57:00,
2013-07-31 02:02:00,60.3,57.4,29.37,North,0,0.0,0.0,90,0.00,,,0.00,WUHU216HW,2013-07-31 07:02:00,
2013-07-31 02:07:00,60.7,57.8,29.36,North,0,0.0,0.0,90,0.00,,,0.00,WUHU216HW,2013-07-31 07:07:00,
2013-07-31 02:12:00,61.0,58.1,29.36,North,0,0.0,0.0,90,0.00,,,0.00,WUHU216HW,2013-07-31 07:12:00,
2013-07-31 02:17:00,61.2,58.3,29.36,North,0,0.0,0.0,90,0.00,,,0.00,WUHU216HW,2013-07-31 07:17:00,
2013-07-31 02:22:00,61.4,58.5,29.36,North,0,0.0,0.0,90,0.00,,,0.00,WUHU216HW,2013-07-31 07:22:00,
2013-07-31 02:27:00,61.6,58.7,29.37,North,0,0.0,0.0,90,0.00,,,0.00,WUHU216HW,2013-07-31 07:27:00,
2013-07-31 02:32:00,61.7,58.9,29.36,North,0,0.0,0.0,90,0.00,,,0.00,WUHU216HW,2013-07-31 07:32:00,
2013-07-31 02:37:00,61.9,59.0,29.36,North,0,0.0,0.0,90,0.00,,,0.00,WUHU216HW,2013-07-31 07:37:00,
2013-07-31 02:42:00,61.9,59.0,29.36,North,0,0.0,0.0,90,0.00,,,0.00,WUHU216HW,2013-07-31 07:42:00,
2013-07-31 02:47:00,62.1,59.5,29.36,North,0,0.0,0.0,91,0.00,,,0.00,WUHU216HW,2013-07-31 07:47:00,
2013-07-31 02:52:00,62.3,59.7,29.35,North,0,0.0,0.0,91,0.00,,,0.00,WUHU216HW,2013-07-31 07:52:00,
2013-07-31 02:57:00,62.3,59.7,29.35,North,0,0.0,0.0,91,0.00,,,0.00,WUHU216HW,2013-07-31 07:57:00,
2013-07-31 03:02:00,62.3,59.7,29.35,North,0,0.0,0.0,91,0.00,,,0.00,WUHU216HW,2013-07-31 08:02:00,
2013-07-31 03:07:00,62.1,59.5,29.35,North,0,0.0,0.0,91,0.00,,,0.00,WUHU216HW,2013-07-31 08:07:00,
2013-07-31 03:12:00,62.1,59.5,29.35,North,0,0.0,0.0,91,0.00,,,0.00,WUHU216HW,2013-07-31 08:12:00,
2013-07-31 03:17:00,62.1,59.5,29.35,North,0,0.0,0.0,91,0.00,,,0.00,WUHU216HW,2013-07-31 08:17:00,
2013-07-31 03:22:00,62.1,59.5,29.35,North,0,0.0,0.0,91,0.00,,,0.00,WUHU216HW,2013-07-31 08:22:00,
2013-07-31 03:27:00,62.3,59.7,29.35,North,0,0.0,0.0,91,0.00,,,0.00,WUHU216HW,2013-07-31 08:27:00,
2013-07-31 03:32:00,62.3,59.7,29.35,North,0,0.0,0.0,91,0.00,,,0.00,WUHU216HW,2013-07-31 08:32:00,
2013-07-31 03:37:00,62.1,59.5,29.35,North,0,0.0,0.0,91,0.00,,,0.00,WUHU216HW,2013-07-31 08:37:00,
2013-07-31 03:42:00,61.9,59.0,29.35,North,0,0.0,0.0,90,0.00,,,0.00,WUHU216HW,2013-07-31 08:42:00,
2013-07-31 03:47:00,61.7,58.9,29.35,North,0,0.0,0.0,90,0.00,,,0.00,WUHU216HW,2013-07-31 08:47:00,
2013-07-31 03:52:00,61.6,58.7,29.35,North,0,0.0,0.0,90,0.00,,,0.00,WUHU216HW,2013-07-31 08:52:00,
2013-07-31 03:57:00,61.6,59.0,29.36,North,0,0.0,0.0,91,0.00,,,0.00,WUHU216HW,2013-07-31 08:57:00,
2013-07-31 04:02:00,61.6,59.0,29.36,North,0,0.0,0.0,91,0.00,,,0.00,WUHU216HW,2013-07-31 09:02:00,
2013-07-31 04:07:00,61.4,58.8,29.36,North,0,0.0,0.0,91,0.00,,,0.00,WUHU216HW,2013-07-31 09:07:00,
2013-07-31 04:12:00,61.4,58.8,29.36,North,0,0.0,0.0,91,0.00,,,0.00,WUHU216HW,2013-07-31 09:12:00,
2013-07-31 04:17:00,61.4,58.8,29.36,North,0,0.0,0.0,91,0.00,,,0.00,WUHU216HW,2013-07-31 09:17:00,
2013-07-31 04:22:00,61.2,58.6,29.36,North,0,0.0,0.0,91,0.00,,,0.00,WUHU216HW,2013-07-31 09:22:00,
2013-07-31 04:27:00,61.2,58.6,29.36,North,0,0.0,0.0,91,0.00,,,0.00,WUHU216HW,2013-07-31 09:27:00,
2013-07-31 04:32:00,61.0,58.4,29.36,North,0,0.0,0.0,91,0.00,,,0.00,WUHU216HW,2013-07-31 09:32:00,
2013-07-31 04:37:00,61.0,58.4,29.36,North,0,0.0,0.0,91,0.00,,,0.00,WUHU216HW,2013-07-31 09:37:00,
2013-07-31 04:42:00,61.2,58.6,29.37,North,0,0.0,0.0,91,0.00,,,0.00,WUHU216HW,2013-07-31 09:42:00,
2013-07-31 04:47:00,61.2,58.6,29.37,North,0,0.0,0.0,91,0.00,,,0.00,WUHU216HW,2013-07-31 09:47:00,
2013-07-31 04:52:00,61.4,58.8,29.36,North,0,0.0,0.0,91,0.00,,,0.00,WUHU216HW,2013-07-31 09:52:00,
2013-07-31 04:57:00,61.2,58.6,29.36,North,0,0.0,0.0,91,0.00,,,0.00,WUHU216HW,2013-07-31 09:57:00,
2013-07-31 05:02:00,61.2,58.6,29.36,North,0,0.0,0.0,91,0.00,,,0.00,WUHU216HW,2013-07-31 10:02:00,
2013-07-31 05:07:00,61.2,58.6,29.36,North,0,0.0,0.0,91,0.00,,,0.00,WUHU216HW,2013-07-31 10:07:00,
2013-07-31 05:12:00,61.0,58.4,29.36,North,0,0.0,0.0,91,0.00,,,0.00,WUHU216HW,2013-07-31 10:12:00,
2013-07-31 05:17:00,60.8,58.2,29.36,North,0,0.0,0.0,91,0.00,,,0.00,WUHU216HW,2013-07-31 10:17:00,
2013-07-31 05:22:00,60.8,58.2,29.36,North,0,0.0,0.0,91,0.00,,,0.00,WUHU216HW,2013-07-31 10:22:00,
2013-07-31 05:27:00,60.8,58.2,29.36,North,0,0.0,0.0,91,0.00,,,0.00,WUHU216HW,2013-07-31 10:27:00,
2013-07-31 05:32:00,60.7,58.1,29.36,North,0,0.0,0.0,91,0.00,,,0.00,WUHU216HW,2013-07-31 10:32:00,
2013-07-31 05:37:00,60.7,58.1,29.35,North,0,0.0,0.0,91,0.00,,,0.00,WUHU216HW,2013-07-31 10:37:00,
2013-07-31 05:42:00,60.7,58.1,29.35,North,0,0.0,0.0,91,0.00,,,0.00,WUHU216HW,2013-07-31 10:42:00,
2013-07-31 05:47:00,60.7,58.1,29.35,North,0,0.0,0.0,91,0.00,,,0.00,WUHU216HW,2013-07-31 10:47:00,
2013-07-31 05:52:00,60.8,58.5,29.35,North,0,0.0,0.0,92,0.00,,,0.00,WUHU216HW,2013-07-31 10:52:00,
2013-07-31 05:57:00,61.0,58.7,29.35,North,0,0.0,0.0,92,0.00,,,0.00,WUHU216HW,2013-07-31 10:57:00,
2013-07-31 06:02:00,61.0,58.7,29.36,North,0,0.0,0.0,92,0.00,,,0.00,WUHU216HW,2013-07-31 11:02:00,
2013-07-31 06:07:00,61.2,58.9,29.35,North,0,0.0,0.0,92,0.00,,,0.00,WUHU216HW,2013-07-31 11:07:00,
2013-07-31 06:12:00,61.2,58.9,29.36,North,0,0.0,0.0,92,0.00,,,0.00,WUHU216HW,2013-07-31 11:12:00,
2013-07-31 06:17:00,61.2,58.9,29.36,North,0,0.0,0.0,92,0.00,,,0.00,WUHU216HW,2013-07-31 11:17:00,
2013-07-31 06:22:00,61.2,58.9,29.36,North,0,0.0,0.0,92,0.00,,,0.00,WUHU216HW,2013-07-31 11:22:00,
2013-07-31 06:27:00,61.2,58.9,29.36,North,0,0.0,0.0,92,0.00,,,0.00,WUHU216HW,2013-07-31 11:27:00,
2013-07-31 06:32:00,61.6,59.2,29.35,North,0,0.0,0.0,92,0.00,,,0.00,WUHU216HW,2013-07-31 11:32:00,
2013-07-31 06:37:00,61.7,59.4,29.35,North,0,0.0,0.0,92,0.00,,,0.00,WUHU216HW,2013-07-31 11:37:00,
2013-07-31 06:42:00,61.7,59.4,29.35,North,0,0.0,0.0,92,0.00,,,0.00,WUHU216HW,2013-07-31 11:42:00,
2013-07-31 06:47:00,61.9,59.6,29.35,North,0,0.0,0.0,92,0.00,,,0.00,WUHU216HW,2013-07-31 11:47:00,
2013-07-31 06:52:00,62.1,59.8,29.35,North,0,0.0,0.0,92,0.00,,,0.00,WUHU216HW,2013-07-31 11:52:00,
2013-07-31 06:57:00,62.3,59.9,29.35,North,0,0.0,0.0,92,0.00,,,0.00,WUHU216HW,2013-07-31 11:57:00,
2013-07-31 07:02:00,62.3,59.9,29.35,North,0,0.0,0.0,92,0.00,,,0.00,WUHU216HW,2013-07-31 12:02:00,
2013-07-31 07:07:00,62.6,60.3,29.35,North,0,0.0,0.0,92,0.00,,,0.00,WUHU216HW,2013-07-31 12:07:00,
2013-07-31 07:12:00,62.8,60.5,29.35,North,0,0.0,0.0,92,0.00,,,0.00,WUHU216HW,2013-07-31 12:12:00,
2013-07-31 07:17:00,63.2,60.8,29.36,North,0,0.0,0.0,92,0.00,,,0.00,WUHU216HW,2013-07-31 12:17:00,
2013-07-31 07:22:00,63.4,61.0,29.35,North,0,0.0,0.0,92,0.00,,,0.00,WUHU216HW,2013-07-31 12:22:00,
2013-07-31 07:27:00,63.4,61.0,29.36,North,0,0.0,0.0,92,0.00,,,0.00,WUHU216HW,2013-07-31 12:27:00,
2013-07-31 07:32:00,63.7,61.4,29.36,North,0,0.0,0.0,92,0.00,,,0.00,WUHU216HW,2013-07-31 12:32:00,
2013-07-31 07:37:00,64.1,61.7,29.36,North,0,0.0,0.0,92,0.00,,,0.00,WUHU216HW,2013-07-31 12:37:00,
2013-07-31 07:42:00,64.8,62.5,29.36,North,0,0.0,0.0,92,0.00,,,0.00,WUHU216HW,2013-07-31 12:42:00,
2013-07-31 07:47:00,65.2,62.5,29.36,North,0,0.0,0.0,91,0.00,,,0.00,WUHU216HW,2013-07-31 12:47:00,
2013-07-31 07:52:00,65.3,62.6,29.35,North,0,0.0,0.0,91,0.00,,,0.00,WUHU216HW,2013-07-31 12:52:00,
2013-07-31 07:57:00,65.5,62.6,29.36,North,0,0.0,0.0,90,0.00,,,0.00,WUHU216HW,2013-07-31 12:57:00,
2013-07-31 08:02:00,65.5,62.6,29.35,North,0,0.0,0.0,90,0.00,,,0.00,WUHU216HW,2013-07-31 13:02:00,
2013-07-31 08:07:00,65.5,62.6,29.35,North,0,0.0,0.0,90,0.00,,,0.00,WUHU216HW,2013-07-31 13:07:00,
2013-07-31 08:12:00,65.9,63.2,29.36,North,0,0.0,0.0,91,0.00,,,0.00,WUHU216HW,2013-07-31 13:12:00,
2013-07-31 08:17:00,65.9,62.8,29.36,North,0,0.0,0.0,90,0.00,,,0.00,WUHU216HW,2013-07-31 13:17:00,
2013-07-31 08:22:00,65.9,62.8,29.36,North,0,0.0,0.0,90,0.00,,,0.00,WUHU216HW,2013-07-31 13:22:00,
2013-07-31 08:43:00,67.9,64.2,29.36,North,0,0.0,0.0,88,0.00,,,0.00,WUHU216HW,2013-07-31 13:43:00,
2013-07-31 08:48:00,68.0,64.0,29.36,North,0,0.0,0.0,87,0.00,,,0.00,WUHU216HW,2013-07-31 13:48:00,
2013-07-31 08:53:00,68.0,64.0,29.36,North,0,0.0,0.0,87,0.00,,,0.00,WUHU216HW,2013-07-31 13:53:00,
2013-07-31 08:58:00,68.0,64.0,29.37,North,0,0.0,0.0,87,0.00,,,0.00,WUHU216HW,2013-07-31 13:58:00,
2013-07-31 09:03:00,68.0,63.7,29.37,North,0,0.0,0.0,86,0.00,,,0.00,WUHU216HW,2013-07-31 14:03:00,
2013-07-31 09:08:00,68.0,63.7,29.36,North,0,0.0,0.0,86,0.00,,,0.00,WUHU216HW,2013-07-31 14:08:00,
2013-07-31 09:13:00,68.0,63.7,29.37,North,0,0.0,0.0,86,0.00,,,0.00,WUHU216HW,2013-07-31 14:13:00,
2013-07-31 09:18:00,68.0,63.7,29.37,North,0,0.0,0.0,86,0.00,,,0.00,WUHU216HW,2013-07-31 14:18:00,
2013-07-31 09:23:00,68.0,63.7,29.36,North,0,0.0,0.0,86,0.00,,,0.00,WUHU216HW,2013-07-31 14:23:00,
2013-07-31 09:28:00,68.4,64.0,29.36,North,0,0.0,0.0,86,0.00,,,0.00,WUHU216HW,2013-07-31 14:28:00,
2013-07-31 09:33:00,68.8,64.1,29.36,North,0,0.0,0.0,85,0.00,,,0.00,WUHU216HW,2013-07-31 14:33:00,
2013-07-31 09:38:00,69.3,64.5,29.36,North,0,0.0,0.0,85,0.00,,,0.00,WUHU216HW,2013-07-31 14:38:00,
2013-07-31 09:43:00,70.2,65.1,29.36,North,0,0.0,0.0,84,0.00,,,0.00,WUHU216HW,2013-07-31 14:43:00,
2013-07-31 09:48:00,70.7,65.3,29.36,North,0,0.0,0.0,83,0.00,,,0.00,WUHU216HW,2013-07-31 14:48:00,
2013-07-31 09:53:00,71.5,65.7,29.36,North,0,0.0,0.0,82,0.00,,,0.00,WUHU216HW,2013-07-31 14:53:00,
2013-07-31 09:58:00,71.6,65.2,29.36,North,0,0.0,0.0,80,0.00,,,0.00,WUHU216HW,2013-07-31 14:58:00,
2013-07-31 10:03:00,71.6,65.2,29.36,North,0,0.0,0.0,80,0.00,,,0.00,WUHU216HW,2013-07-31 15:03:00,
2013-07-31 10:08:00,71.6,64.8,29.36,North,0,0.0,0.0,79,0.00,,,0.00,WUHU216HW,2013-07-31 15:08:00,
2013-07-31 10:13:00,71.6,64.5,29.36,North,0,0.0,0.0,78,0.00,,,0.00,WUHU216HW,2013-07-31 15:13:00,
2013-07-31 10:18:00,71.6,64.5,29.35,North,0,0.0,0.0,78,0.00,,,0.00,WUHU216HW,2013-07-31 15:18:00,
2013-07-31 10:23:00,71.6,64.5,29.36,North,0,0.0,0.0,78,0.00,,,0.00,WUHU216HW,2013-07-31 15:23:00,
2013-07-31 10:28:00,72.0,64.4,29.36,North,0,0.0,0.0,77,0.00,,,0.00,WUHU216HW,2013-07-31 15:28:00,
2013-07-31 10:33:00,72.2,64.2,29.36,North,0,0.0,0.0,76,0.00,,,0.00,WUHU216HW,2013-07-31 15:33:00,
2013-07-31 10:38:00,72.4,64.7,29.36,North,0,0.0,0.0,77,0.00,,,0.00,WUHU216HW,2013-07-31 15:38:00,
2013-07-31 10:43:00,72.9,65.3,29.36,North,0,0.0,0.0,77,0.00,,,0.00,WUHU216HW,2013-07-31 15:43:00,
2013-07-31 10:48:00,73.4,65.1,29.36,North,0,0.0,0.0,75,0.00,,,0.00,WUHU216HW,2013-07-31 15:48:00,
2013-07-31 10:53:00,73.8,65.4,29.36,North,0,0.0,0.0,75,0.00,,,0.00,WUHU216HW,2013-07-31 15:53:00,
2013-07-31 10:58:00,74.2,65.8,29.36,North,0,0.0,0.0,75,0.00,,,0.00,WUHU216HW,2013-07-31 15:58:00,
2013-07-31 11:03:00,74.7,65.9,29.37,North,0,0.0,0.0,74,0.00,,,0.00,WUHU216HW,2013-07-31 16:03:00,
2013-07-31 11:08:00,74.9,65.3,29.36,North,0,0.0,0.0,72,0.00,,,0.00,WUHU216HW,2013-07-31 16:08:00,
2013-07-31 11:13:00,75.4,65.3,29.36,North,0,0.0,0.0,71,0.00,,,0.00,WUHU216HW,2013-07-31 16:13:00,
2013-07-31 11:18:00,76.3,66.2,29.36,North,0,0.0,0.0,71,0.00,,,0.00,WUHU216HW,2013-07-31 16:18:00,
2013-07-31 11:23:00,76.7,65.8,29.36,North,0,0.0,0.0,69,0.00,,,0.00,WUHU216HW,2013-07-31 16:23:00,
2013-07-31 11:28:00,76.7,65.3,29.36,North,0,0.0,0.0,68,0.00,,,0.00,WUHU216HW,2013-07-31 16:28:00,
2013-07-31 11:33:00,76.5,64.7,29.36,North,0,0.0,0.0,67,0.00,,,0.00,WUHU216HW,2013-07-31 16:33:00,
2013-07-31 11:38:00,76.0,64.6,29.36,North,0,0.0,0.0,68,0.00,,,0.00,WUHU216HW,2013-07-31 16:38:00,
2013-07-31 11:43:00,75.6,64.3,29.36,North,0,0.0,0.0,68,0.00,,,0.00,WUHU216HW,2013-07-31 16:43:00,
2013-07-31 11:48:00,75.2,63.9,29.36,North,0,0.0,0.0,68,0.00,,,0.00,WUHU216HW,2013-07-31 16:48:00,
2013-07-31 11:53:00,75.1,64.2,29.36,North,0,0.0,0.0,69,0.00,,,0.00,WUHU216HW,2013-07-31 16:53:00,
2013-07-31 11:58:00,75.1,64.2,29.36,North,0,0.0,0.0,69,0.00,,,0.00,WUHU216HW,2013-07-31 16:58:00,
2013-07-31 12:03:00,75.2,64.4,29.35,North,0,0.0,0.0,69,0.00,,,0.00,WUHU216HW,2013-07-31 17:03:00,
2013-07-31 12:08:00,75.2,64.4,29.35,North,0,0.0,0.0,69,0.00,,,0.00,WUHU216HW,2013-07-31 17:08:00,
2013-07-31 12:13:00,75.6,64.7,29.36,North,0,0.0,0.0,69,0.00,,,0.00,WUHU216HW,2013-07-31 17:13:00,
2013-07-31 12:18:00,76.0,64.6,29.35,North,0,0.0,0.0,68,0.00,,,0.00,WUHU216HW,2013-07-31 17:18:00,
2013-07-31 12:23:00,76.0,64.6,29.35,North,0,0.0,0.0,68,0.00,,,0.00,WUHU216HW,2013-07-31 17:23:00,
2013-07-31 12:28:00,76.1,64.8,29.35,North,0,0.0,0.0,68,0.00,,,0.00,WUHU216HW,2013-07-31 17:28:00,
2013-07-31 12:33:00,76.0,64.6,29.36,North,0,0.0,0.0,68,0.00,,,0.00,WUHU216HW,2013-07-31 17:33:00,
2013-07-31 12:38:00,76.1,64.8,29.35,North,0,0.0,0.0,68,0.00,,,0.00,WUHU216HW,2013-07-31 17:38:00,
2013-07-31 12:43:00,76.3,64.5,29.35,North,0,0.0,0.0,67,0.00,,,0.00,WUHU216HW,2013-07-31 17:43:00,
2013-07-31 12:48:00,76.3,65.4,29.35,North,0,0.0,0.0,69,0.00,,,0.00,WUHU216HW,2013-07-31 17:48:00,
2013-07-31 12:53:00,76.7,65.3,29.35,North,0,0.0,0.0,68,0.00,,,0.00,WUHU216HW,2013-07-31 17:53:00,
2013-07-31 12:58:00,76.7,64.9,29.35,North,0,0.0,0.0,67,0.00,,,0.00,WUHU216HW,2013-07-31 17:58:00,
2013-07-31 13:03:00,76.7,65.3,29.34,North,0,0.0,0.0,68,0.00,,,0.00,WUHU216HW,2013-07-31 18:03:00,
2013-07-31 13:08:00,76.7,64.4,29.34,North,0,0.0,0.0,66,0.00,,,0.00,WUHU216HW,2013-07-31 18:08:00,
2013-07-31 13:13:00,76.7,64.4,29.34,North,0,0.0,0.0,66,0.00,,,0.00,WUHU216HW,2013-07-31 18:13:00,
2013-07-31 13:18:00,77.2,65.0,29.34,North,0,0.0,0.0,66,0.00,,,0.00,WUHU216HW,2013-07-31 18:18:00,
2013-07-31 13:23:00,78.1,65.8,29.34,North,0,0.0,0.0,66,0.00,,,0.00,WUHU216HW,2013-07-31 18:23:00,
2013-07-31 13:28:00,78.1,65.3,29.34,North,0,0.0,0.0,65,0.00,,,0.00,WUHU216HW,2013-07-31 18:28:00,
2013-07-31 13:33:00,78.1,65.3,29.34,North,0,0.0,0.0,65,0.00,,,0.00,WUHU216HW,2013-07-31 18:33:00,
2013-07-31 13:54:00,79.2,65.5,29.34,North,0,0.0,0.0,63,0.00,,,0.00,WUHU216HW,2013-07-31 18:54:00,
2013-07-31 13:59:00,79.6,65.0,29.33,North,0,0.0,0.0,61,0.00,,,0.00,WUHU216HW,2013-07-31 18:59:00,
2013-07-31 14:04:00,80.1,65.9,29.33,North,0,0.0,0.0,62,0.00,,,0.00,WUHU216HW,2013-07-31 19:04:00,
2013-07-31 14:09:00,80.5,65.8,29.33,North,0,0.0,0.0,61,0.00,,,0.00,WUHU216HW,2013-07-31 19:09:00,
2013-07-31 14:14:00,80.6,65.5,29.33,North,0,0.0,0.0,60,0.00,,,0.00,WUHU216HW,2013-07-31 19:14:00,
2013-07-31 14:19:00,80.6,65.0,29.33,North,0,0.0,0.0,59,0.00,,,0.00,WUHU216HW,2013-07-31 19:19:00,
2013-07-31 14:24:00,80.5,64.4,29.33,North,0,0.0,0.0,58,0.00,,,0.00,WUHU216HW,2013-07-31 19:24:00,
2013-07-31 14:29:00,79.9,63.3,29.33,North,0,0.0,0.0,57,0.00,,,0.00,WUHU216HW,2013-07-31 19:29:00,
2013-07-31 14:34:00,79.9,63.8,29.33,North,0,0.0,0.0,58,0.00,,,0.00,WUHU216HW,2013-07-31 19:34:00,
2013-07-31 14:39:00,79.9,63.3,29.32,North,0,0.0,0.0,57,0.00,,,0.00,WUHU216HW,2013-07-31 19:39:00,
2013-07-31 14:44:00,80.3,63.1,29.33,North,0,0.0,0.0,56,0.00,,,0.00,WUHU216HW,2013-07-31 19:44:00,
2013-07-31 14:49:00,80.3,61.6,29.32,North,0,0.0,0.0,53,0.00,,,0.00,WUHU216HW,2013-07-31 19:49:00,
2013-07-31 14:54:00,79.9,62.8,29.32,North,0,0.0,0.0,56,0.00,,,0.00,WUHU216HW,2013-07-31 19:54:00,
2013-07-31 14:59:00,79.6,61.9,29.32,North,0,0.0,0.0,55,0.00,,,0.00,WUHU216HW,2013-07-31 19:59:00,
2013-07-31 15:04:00,79.6,61.4,29.31,North,0,0.0,0.0,54,0.00,,,0.00,WUHU216HW,2013-07-31 20:04:00,
2013-07-31 15:09:00,79.0,59.4,29.31,North,0,0.0,0.0,51,0.00,,,0.00,WUHU216HW,2013-07-31 20:09:00,
2013-07-31 15:14:00,79.0,59.4,29.31,North,0,0.0,0.0,51,0.00,,,0.00,WUHU216HW,2013-07-31 20:14:00,
2013-07-31 15:19:00,79.0,59.4,29.31,North,0,0.0,0.0,51,0.00,,,0.00,WUHU216HW,2013-07-31 20:19:00,
2013-07-31 15:24:00,79.0,59.9,29.31,North,0,0.0,0.0,52,0.00,,,0.00,WUHU216HW,2013-07-31 20:24:00,
2013-07-31 15:29:00,78.8,58.7,29.31,North,0,0.0,0.0,50,0.00,,,0.00,WUHU216HW,2013-07-31 20:29:00,
2013-07-31 15:34:00,78.5,58.9,29.31,North,0,0.0,0.0,51,0.00,,,0.00,WUHU216HW,2013-07-31 20:34:00,
2013-07-31 15:39:00,78.5,58.9,29.31,North,0,0.0,0.0,51,0.00,,,0.00,WUHU216HW,2013-07-31 20:39:00,
2013-07-31 15:44:00,78.5,58.9,29.31,North,0,0.0,0.0,51,0.00,,,0.00,WUHU216HW,2013-07-31 20:44:00,
2013-07-31 15:49:00,78.7,59.1,29.31,North,0,0.0,0.0,51,0.00,,,0.00,WUHU216HW,2013-07-31 20:49:00,
2013-07-31 15:54:00,78.8,59.2,29.31,North,0,0.0,0.0,51,0.00,,,0.00,WUHU216HW,2013-07-31 20:54:00,
2013-07-31 15:59:00,79.2,59.1,29.31,North,0,0.0,0.0,50,0.00,,,0.00,WUHU216HW,2013-07-31 20:59:00,
2013-07-31 16:04:00,79.2,58.4,29.31,North,0,0.0,0.0,49,0.00,,,0.00,WUHU216HW,2013-07-31 21:04:00,
2013-07-31 16:09:00,79.2,59.1,29.31,North,0,0.0,0.0,50,0.00,,,0.00,WUHU216HW,2013-07-31 21:09:00,
2013-07-31 16:14:00,78.8,57.4,29.31,North,0,0.0,0.0,48,0.00,,,0.00,WUHU216HW,2013-07-31 21:14:00,
2013-07-31 16:19:00,78.1,57.4,29.30,North,0,0.0,0.0,49,0.00,,,0.00,WUHU216HW,2013-07-31 21:19:00,
2013-07-31 16:24:00,77.6,57.0,29.30,North,0,0.0,0.0,49,0.00,,,0.00,WUHU216HW,2013-07-31 21:24:00,
2013-07-31 16:29:00,77.8,57.1,29.30,North,0,0.0,0.0,49,0.00,,,0.00,WUHU216HW,2013-07-31 21:29:00,
2013-07-31 16:34:00,77.8,57.7,29.30,North,0,0.0,0.0,50,0.00,,,0.00,WUHU216HW,2013-07-31 21:34:00,
2013-07-31 16:39:00,77.6,55.7,29.30,North,0,0.0,0.0,47,0.00,,,0.00,WUHU216HW,2013-07-31 21:39:00,
2013-07-31 16:44:00,78.1,56.2,29.30,North,0,0.0,0.0,47,0.00,,,0.00,WUHU216HW,2013-07-31 21:44:00,
2013-07-31 16:49:00,78.5,55.9,29.30,North,0,0.0,0.0,46,0.00,,,0.00,WUHU216HW,2013-07-31 21:49:00,
2013-07-31 16:54:00,78.5,56.5,29.30,North,0,0.0,0.0,47,0.00,,,0.00,WUHU216HW,2013-07-31 21:54:00,
2013-07-31 16:59:00,78.5,55.9,29.30,North,0,0.0,0.0,46,0.00,,,0.00,WUHU216HW,2013-07-31 21:59:00,
2013-07-31 17:04:00,78.5,55.9,29.30,North,0,0.0,0.0,46,0.00,,,0.00,WUHU216HW,2013-07-31 22:04:00,
2013-07-31 17:09:00,78.8,56.3,29.30,North,0,0.0,0.0,46,0.00,,,0.00,WUHU216HW,2013-07-31 22:09:00,
2013-07-31 17:14:00,79.0,56.4,29.30,North,0,0.0,0.0,46,0.00,,,0.00,WUHU216HW,2013-07-31 22:14:00,
2013-07-31 17:19:00,79.0,54.5,29.30,North,0,0.0,0.0,43,0.00,,,0.00,WUHU216HW,2013-07-31 22:19:00,
2013-07-31 17:24:00,78.8,55.0,29.30,North,0,0.0,0.0,44,0.00,,,0.00,WUHU216HW,2013-07-31 22:24:00,
2013-07-31 17:29:00,78.5,54.7,29.30,North,0,0.0,0.0,44,0.00,,,0.00,WUHU216HW,2013-07-31 22:29:00,
2013-07-31 17:34:00,78.1,53.7,29.30,North,0,0.0,0.0,43,0.00,,,0.00,WUHU216HW,2013-07-31 22:34:00,
2013-07-31 17:39:00,78.1,55.0,29.30,North,0,0.0,0.0,45,0.00,,,0.00,WUHU216HW,2013-07-31 22:39:00,
2013-07-31 17:44:00,78.3,54.6,29.30,North,0,0.0,0.0,44,0.00,,,0.00,WUHU216HW,2013-07-31 22:44:00,
2013-07-31 17:49:00,78.3,53.9,29.29,North,0,0.0,0.0,43,0.00,,,0.00,WUHU216HW,2013-07-31 22:49:00,
2013-07-31 17:54:00,77.9,53.6,29.29,North,0,0.0,0.0,43,0.00,,,0.00,WUHU216HW,2013-07-31 22:54:00,
2013-07-31 17:59:00,77.6,53.9,29.29,North,0,0.0,0.0,44,0.00,,,0.00,WUHU216HW,2013-07-31 22:59:00,
2013-07-31 18:04:00,77.6,55.1,29.29,North,0,0.0,0.0,46,0.00,,,0.00,WUHU216HW,2013-07-31 23:04:00,
2013-07-31 18:09:00,77.8,55.3,29.29,North,0,0.0,0.0,46,0.00,,,0.00,WUHU216HW,2013-07-31 23:09:00,
2013-07-31 18:14:00,77.9,54.8,29.29,North,0,0.0,0.0,45,0.00,,,0.00,WUHU216HW,2013-07-31 23:14:00,
2013-07-31 18:19:00,77.8,54.0,29.29,North,0,0.0,0.0,44,0.00,,,0.00,WUHU216HW,2013-07-31 23:19:00,
2013-07-31 18:24:00,77.8,54.0,29.29,North,0,0.0,0.0,44,0.00,,,0.00,WUHU216HW,2013-07-31 23:24:00,
2013-07-31 18:29:00,77.6,53.3,29.29,North,0,0.0,0.0,43,0.00,,,0.00,WUHU216HW,2013-07-31 23:29:00,
2013-07-31 18:34:00,77.8,52.8,29.29,North,0,0.0,0.0,42,0.00,,,0.00,WUHU216HW,2013-07-31 23:34:00,
2013-07-31 18:39:00,77.6,53.9,29.29,North,0,0.0,0.0,44,0.00,,,0.00,WUHU216HW,2013-07-31 23:39:00,
2013-07-31 18:44:00,77.6,53.9,29.29,North,0,0.0,0.0,44,0.00,,,0.00,WUHU216HW,2013-07-31 23:44:00,
2013-07-31 18:49:00,77.6,53.9,29.29,North,0,0.0,0.0,44,0.00,,,0.00,WUHU216HW,2013-07-31 23:49:00,
2013-07-31 19:00:00,77.0,54.0,29.29,North,0,0.0,0.0,45,0.00,,,0.00,WUHU216HW,2013-08-01 00:00:00,
2013-07-31 19:05:00,76.9,53.8,29.29,North,0,0.0,0.0,45,0.00,,,0.00,WUHU216HW,2013-08-01 00:05:00,
2013-07-31 19:10:00,76.7,53.6,29.29,North,0,0.0,0.0,45,0.00,,,0.00,WUHU216HW,2013-08-01 00:10:00,
2013-07-31 19:15:00,76.5,52.9,29.29,North,0,0.0,0.0,44,0.00,,,0.00,WUHU216HW,2013-08-01 00:15:00,
2013-07-31 19:20:00,76.3,52.7,29.29,North,0,0.0,0.0,44,0.00,,,0.00,WUHU216HW,2013-08-01 00:20:00,
2013-07-31 19:25:00,76.0,53.0,29.29,North,0,0.0,0.0,45,0.00,,,0.00,WUHU216HW,2013-08-01 00:25:00,
2013-07-31 19:30:00,75.8,52.8,29.29,North,0,0.0,0.0,45,0.00,,,0.00,WUHU216HW,2013-08-01 00:30:00,
2013-07-31 19:35:00,75.6,52.8,29.29,North,0,0.0,0.0,45,0.00,,,0.00,WUHU216HW,2013-08-01 00:35:00,
2013-07-31 19:40:00,75.4,53.2,29.29,North,0,0.0,0.0,46,0.00,,,0.00,WUHU216HW,2013-08-01 00:40:00,
2013-07-31 19:45:00,75.2,53.0,29.29,North,0,0.0,0.0,46,0.00,,,0.00,WUHU216HW,2013-08-01 00:45:00,
2013-07-31 19:50:00,75.1,52.8,29.29,North,0,0.0,0.0,46,0.00,,,0.00,WUHU216HW,2013-08-01 00:50:00,
2013-07-31 19:55:00,74.9,52.7,29.29,North,0,0.0,0.0,46,0.00,,,0.00,WUHU216HW,2013-08-01 00:55:00,
2013-07-31 20:00:00,74.5,52.3,29.29,North,0,0.0,0.0,46,0.00,,,0.00,WUHU216HW,2013-08-01 01:00:00,
2013-07-31 20:05:00,74.2,52.6,29.29,North,0,0.0,0.0,47,0.00,,,0.00,WUHU216HW,2013-08-01 01:05:00,
2013-07-31 20:10:00,73.8,52.2,29.29,North,0,0.0,0.0,47,0.00,,,0.00,WUHU216HW,2013-08-01 01:10:00,
2013-07-31 20:15:00,73.4,52.5,29.29,North,0,0.0,0.0,48,0.00,,,0.00,WUHU216HW,2013-08-01 01:15:00,
2013-07-31 20:20:00,73.3,52.3,29.30,North,0,0.0,0.0,48,0.00,,,0.00,WUHU216HW,2013-08-01 01:20:00,
2013-07-31 20:25:00,72.9,52.6,29.29,North,0,0.0,0.0,49,0.00,,,0.00,WUHU216HW,2013-08-01 01:25:00,
2013-07-31 20:30:00,72.5,52.2,29.29,North,0,0.0,0.0,49,0.00,,,0.00,WUHU216HW,2013-08-01 01:30:00,
2013-07-31 20:35:00,72.4,52.1,29.30,North,0,0.0,0.0,49,0.00,,,0.00,WUHU216HW,2013-08-01 01:35:00,
2013-07-31 20:40:00,71.6,52.0,29.30,North,0,0.0,0.0,50,0.00,,,0.00,WUHU216HW,2013-08-01 01:40:00,
2013-07-31 20:45:00,71.3,51.7,29.30,North,0,0.0,0.0,50,0.00,,,0.00,WUHU216HW,2013-08-01 01:45:00,
2013-07-31 20:50:00,70.9,51.8,29.30,North,0,0.0,0.0,51,0.00,,,0.00,WUHU216HW,2013-08-01 01:50:00,
2013-07-31 20:55:00,70.6,52.0,29.30,North,0,0.0,0.0,52,0.00,,,0.00,WUHU216HW,2013-08-01 01:55:00,
2013-07-31 21:00:00,70.0,51.6,29.30,North,0,0.0,0.0,52,0.00,,,0.00,WUHU216HW,2013-08-01 02:00:00,
2013-07-31 21:05:00,69.8,51.4,29.30,North,0,0.0,0.0,52,0.00,,,0.00,WUHU216HW,2013-08-01 02:05:00,
2013-07-31 21:10:00,69.5,51.1,29.30,North,0,0.0,0.0,52,0.00,,,0.00,WUHU216HW,2013-08-01 02:10:00,
2013-07-31 21:15:00,69.1,50.8,29.30,North,0,0.0,0.0,52,0.00,,,0.00,WUHU216HW,2013-08-01 02:15:00,
2013-07-31 21:20:00,68.8,51.0,29.30,North,0,0.0,0.0,53,0.00,,,0.00,WUHU216HW,2013-08-01 02:20:00,
2013-07-31 21:25:00,68.4,50.6,29.31,North,0,0.0,0.0,53,0.00,,,0.00,WUHU216HW,2013-08-01 02:25:00,
2013-07-31 21:30:00,68.0,50.2,29.31,North,0,0.0,0.0,53,0.00,,,0.00,WUHU216HW,2013-08-01 02:30:00,
2013-07-31 21:35:00,67.7,50.4,29.31,North,0,0.0,0.0,54,0.00,,,0.00,WUHU216HW,2013-08-01 02:35:00,
2013-07-31 21:40:00,67.5,50.8,29.31,North,0,0.0,0.0,55,0.00,,,0.00,WUHU216HW,2013-08-01 02:40:00,
2013-07-31 21:45:00,67.1,50.4,29.31,North,0,0.0,0.0,55,0.00,,,0.00,WUHU216HW,2013-08-01 02:45:00,
2013-07-31 21:50:00,66.8,50.6,29.31,North,0,0.0,0.0,56,0.00,,,0.00,WUHU216HW,2013-08-01 02:50:00,
2013-07-31 21:55:00,66.6,50.4,29.31,North,0,0.0,0.0,56,0.00,,,0.00,WUHU216HW,2013-08-01 02:55:00,
2013-07-31 22:00:00,66.2,50.6,29.31,North,0,0.0,0.0,57,0.00,,,0.00,WUHU216HW,2013-08-01 03:00:00,
2013-07-31 22:05:00,66.1,50.9,29.31,North,0,0.0,0.0,58,0.00,,,0.00,WUHU216HW,2013-08-01 03:05:00,
2013-07-31 22:10:00,65.9,50.7,29.31,North,0,0.0,0.0,58,0.00,,,0.00,WUHU216HW,2013-08-01 03:10:00,
2013-07-31 22:15:00,65.7,50.5,29.31,North,0,0.0,0.0,58,0.00,,,0.00,WUHU216HW,2013-08-01 03:15:00,
2013-07-31 22:20:00,65.5,50.9,29.31,North,0,0.0,0.0,59,0.00,,,0.00,WUHU216HW,2013-08-01 03:20:00,
2013-07-31 22:25:00,65.2,50.5,29.31,North,0,0.0,0.0,59,0.00,,,0.00,WUHU216HW,2013-08-01 03:25:00,
2013-07-31 22:30:00,65.0,50.3,29.31,North,0,0.0,0.0,59,0.00,,,0.00,WUHU216HW,2013-08-01 03:30:00,
2013-07-31 22:35:00,64.8,50.6,29.32,North,0,0.0,0.0,60,0.00,,,0.00,WUHU216HW,2013-08-01 03:35:00,
2013-07-31 22:40:00,64.6,50.4,29.32,North,0,0.0,0.0,60,0.00,,,0.00,WUHU216HW,2013-08-01 03:40:00,
2013-07-31 22:45:00,64.3,50.0,29.32,North,0,0.0,0.0,60,0.00,,,0.00,WUHU216HW,2013-08-01 03:45:00,
2013-07-31 22:50:00,64.1,50.3,29.32,North,0,0.0,0.0,61,0.00,,,0.00,WUHU216HW,2013-08-01 03:50:00,
2013-07-31 22:55:00,63.9,50.1,29.33,North,0,0.0,0.0,61,0.00,,,0.00,WUHU216HW,2013-08-01 03:55:00,
2013-07-31 23:00:00,63.7,50.1,29.33,North,0,0.0,0.0,61,0.00,,,0.00,WUHU216HW,2013-08-01 04:00:00,
2013-07-31 23:01:00,63.7,50.1,29.33,North,0,0.0,0.0,61,0.00,,,0.00,WUHU216HW,2013-08-01 04:01:00,
2013-07-31 23:02:00,63.7,50.4,29.33,North,0,0.0,0.0,62,0.00,,,0.00,WUHU216HW,2013-08-01 04:02:00,
2013-07-31 23:07:00,63.5,50.2,29.32,North,0,0.0,0.0,62,0.00,,,0.00,WUHU216HW,2013-08-01 04:07:00,
2013-07-31 23:12:00,63.4,50.1,29.32,North,0,0.0,0.0,62,0.00,,,0.00,WUHU216HW,2013-08-01 04:12:00,
2013-07-31 23:17:00,63.4,50.1,29.32,North,0,0.0,0.0,62,0.00,,,0.00,WUHU216HW,2013-08-01 04:17:00,
2013-07-31 23:22:00,63.2,50.3,29.32,North,0,0.0,0.0,63,0.00,,,0.00,WUHU216HW,2013-08-01 04:22:00,
2013-07-31 23:27:00,63.0,50.2,29.32,North,0,0.0,0.0,63,0.00,,,0.00,WUHU216HW,2013-08-01 04:27:00,
2013-07-31 23:32:00,62.6,49.9,29.32,North,0,0.0,0.0,63,0.00,,,0.00,WUHU216HW,2013-08-01 04:32:00,
2013-07-31 23:37:00,62.6,50.2,29.32,North,0,0.0,0.0,64,0.00,,,0.00,WUHU216HW,2013-08-01 04:37:00,
2013-07-31 23:42:00,62.6,50.2,29.32,North,0,0.0,0.0,64,0.00,,,0.00,WUHU216HW,2013-08-01 04:42:00,
2013-07-31 23:47:00,62.5,50.1,29.32,North,0,0.0,0.0,64,0.00,,,0.00,WUHU216HW,2013-08-01 04:47:00,
2013-07-31 23:52:00,62.3,50.0,29.33,North,0,0.0,0.0,64,0.00,,,0.00,WUHU216HW,2013-08-01 04:52:00,
2013-07-31 23:57:00,62.3,50.0,29.33,North,0,0.0,0.0,64,0.00,,,0.00,WUHU216HW,2013-08-01 04:57:00,